DW2128 Weather Reports


Display with metric or nautical units.
time (UTC)temp
F
wind
direction
speed
MPH
gust
MPH
rain 1hr
in
rain 24hr
in
rain mn
in
humidity
%
barometer
mb
20260505003524 63 281 1.0 0.0 0.00 0.00 0.00 55 1012.7
20260505003333 63 266 1.0 0.0 0.00 0.00 0.00 56 1012.7
20260505002048 63 244 1.0 0.0 0.00 0.00 0.00 55 1012.7
20260505001832 63 244 1.0 0.0 0.00 0.00 0.00 55 1012.6
20260505000528 64 240 1.0 0.0 0.00 0.00 0.00 53 1012.6
20260505000334 65 240 1.0 0.0 0.00 0.00 0.00 52 1012.6
20260504235028 67 11 1.0 0.0 0.00 0.00 0.00 51 1012.6
20260504234836 66 13 1.0 0.0 0.00 0.00 0.00 51 1012.6
20260504233533 63 318 0.0 0.0 0.00 0.00 0.00 54 1012.5
20260504233337 63 336 0.0 0.0 0.00 0.00 0.00 54 1012.6
20260504232031 63 304 1.0 0.0 0.00 0.00 0.00 55 1012.6
20260504231841 63 304 1.0 0.0 0.00 0.00 0.00 54 1012.6
20260504230535 63 22 1.0 0.0 0.00 0.00 0.00 53 1012.6
20260504230341 64 19 1.0 0.0 0.00 0.00 0.00 53 1012.6
20260504225035 64 234 0.0 0.0 0.00 0.00 0.00 52 1012.6
20260504224840 64 234 0.0 0.0 0.00 0.00 0.00 51 1012.6
20260504223555 64 219 1.0 0.0 0.00 0.00 0.00 51 1012.6
20260504223346 64 217 2.0 0.0 0.00 0.00 0.00 52 1012.7
20260504222023 64 244 1.0 0.0 0.00 0.00 0.00 50 1012.7
20260504221828 64 244 1.0 0.0 0.00 0.00 0.00 51 1012.7
20260504220526 64 234 2.0 0.0 0.00 0.00 0.00 52 1012.7
20260504220329 64 234 2.0 0.0 0.00 0.00 0.00 51 1013.0
20260504215026 64 250 4.0 0.0 0.00 0.00 0.00 52 1013.0
20260504214836 64 244 4.0 0.0 0.00 0.00 0.00 51 1013.1
20260504213530 64 250 2.0 0.0 0.00 0.00 0.00 51 1013.1
20260504213335 64 250 2.0 0.0 0.00 0.00 0.00 51 1013.0
20260504212049 64 249 1.0 0.0 0.00 0.00 0.00 50 1013.0
20260504211834 64 230 2.0 0.0 0.00 0.00 0.00 49 1013.1
20260504210529 65 252 3.0 0.0 0.00 0.00 0.00 49 1013.1
20260504210336 65 195 3.0 0.0 0.00 0.00 0.00 49 1013.1
20260504205053 66 213 2.0 0.0 0.00 0.00 0.00 48 1013.1
20260504204837 65 244 2.0 0.0 0.00 0.00 0.00 47 1013.1
20260504203533 65 229 4.0 0.0 0.00 0.00 0.00 48 1013.1
20260504203321 65 236 3.0 0.0 0.00 0.00 0.00 50 1013.1
20260504202052 64 223 2.0 0.0 0.00 0.00 0.00 49 1013.1
20260504201839 64 223 2.0 0.0 0.00 0.00 0.00 50 1013.1
20260504200534 64 248 4.0 0.0 0.00 0.00 0.00 50 1013.1
20260504200320 64 251 4.0 0.0 0.00 0.00 0.00 50 1013.1
20260504195020 64 234 2.0 0.0 0.00 0.00 0.00 46 1013.1
20260504194830 64 229 2.0 0.0 0.00 0.00 0.00 45 1013.1
20260504193525 64 226 0.0 0.0 0.00 0.00 0.00 44 1013.1
20260504193330 64 226 0.0 0.0 0.00 0.00 0.00 45 1013.1
20260504192023 64 233 1.0 0.0 0.00 0.00 0.00 50 1013.1
20260504191827 63 233 1.0 0.0 0.00 0.00 0.00 48 1013.2
20260504190541 63 315 1.0 0.0 0.00 0.00 0.00 48 1013.2
20260504190328 63 315 1.0 0.0 0.00 0.00 0.00 48 1013.3
20260504185042 63 316 1.0 0.0 0.00 0.00 0.00 48 1013.3
20260504184823 63 316 1.0 0.0 0.00 0.00 0.00 49 1013.3
20260504183537 63 292 1.0 0.0 0.00 0.00 0.00 48 1013.3
20260504183340 63 292 1.0 0.0 0.00 0.00 0.00 48 1013.4
20260504182035 63 292 1.0 0.0 0.00 0.00 0.00 48 1013.4
20260504181826 63 292 1.0 0.0 0.00 0.00 0.00 48 1013.4
20260504180520 63 292 1.0 0.0 0.00 0.00 0.00 50 1013.4
20260504180325 63 292 1.0 0.0 0.00 0.00 0.00 50 1013.1
20260504175025 63 246 1.0 0.0 0.00 0.00 0.00 49 1013.1
20260504174830 64 223 1.0 0.0 0.00 0.00 0.00 48 1013.1
20260504173525 63 355 1.0 0.0 0.00 0.00 0.00 48 1013.1
20260504173334 63 259 0.0 0.0 0.00 0.00 0.00 49 1013.0
20260504172051 64 243 1.0 0.0 0.00 0.00 0.00 48 1013.1
20260504171835 64 238 1.0 0.0 0.00 0.00 0.00 47 1012.9
20260504170530 64 325 0.0 0.0 0.00 0.00 0.00 49 1012.9
20260504170319 64 325 0.0 0.0 0.00 0.00 0.00 49 1013.0
20260504160346 60 122 0.0 0.0 0.00 0.00 0.00 59 1013.3
20260504150522 54 125 0.0 0.0 0.00 0.00 0.00 70 1013.2
20260504150330 54 125 0.0 0.0 0.00 0.00 0.00 71 1013.1
20260504140531 49 143 0.0 0.0 0.00 0.00 0.00 82 1013.0
20260504140356 48 143 0.0 0.0 0.00 0.00 0.00 82 1013.0
20260504130554 48 143 0.0 0.0 0.00 0.00 0.00 81 1012.2
20260504130342 48 143 0.0 0.0 0.00 0.00 0.00 81 1012.2
20260504110522 49 143 0.0 0.0 0.00 0.00 0.00 77 1012.4
20260504110332 49 143 0.0 0.0 0.00 0.00 0.00 77 1012.5
20260504100530 50 143 0.0 0.0 0.00 0.00 0.00 76 1012.3
20260504100355 50 143 0.0 0.0 0.00 0.00 0.00 76 1012.3
20260504081829 51 143 0.0 0.0 0.00 0.00 0.00 75 1013.0
20260504080523 51 143 0.0 0.0 0.00 0.00 0.00 74 1013.0
20260504080332 51 143 0.0 0.0 0.00 0.00 0.00 74 1013.0
20260504070333 53 143 0.0 0.0 0.00 0.00 0.00 67 1012.9
20260504050522 56 230 0.0 0.0 0.00 0.00 0.00 58 1012.6
20260504050327 56 230 0.0 0.0 0.00 0.00 0.00 58 1012.3
20260504045022 57 231 0.0 0.0 0.00 0.00 0.00 56 1012.3
20260504044825 57 230 0.0 0.0 0.00 0.00 0.00 55 1012.1
20260504043519 57 230 1.0 0.0 0.00 0.00 0.00 55 1012.1
20260504043348 57 231 1.0 0.0 0.00 0.00 0.00 55 1012.0
20260504042021 57 232 1.0 0.0 0.00 0.00 0.00 56 1012.0
20260504041825 57 232 1.0 0.0 0.00 0.00 0.00 56 1012.0
20260504040603 56 203 0.0 0.0 0.00 0.00 0.00 57 1011.9
20260504040322 56 203 0.0 0.0 0.00 0.00 0.00 57 1011.5
20260504035037 57 202 0.0 0.0 0.00 0.00 0.00 56 1011.5
20260504034826 57 202 0.0 0.0 0.00 0.00 0.00 57 1011.4
20260504033521 57 202 0.0 0.0 0.00 0.00 0.00 57 1011.4
20260504033327 57 203 0.0 0.0 0.00 0.00 0.00 57 1011.0
20260504032026 57 235 3.0 0.0 0.00 0.00 0.00 57 1011.0
20260504031855 57 186 2.0 0.0 0.00 0.00 0.00 57 1010.9
20260504030529 58 232 4.0 0.0 0.00 0.00 0.00 57 1010.9
20260504030334 58 192 4.0 0.0 0.00 0.00 0.00 57 1010.9
20260504025028 59 240 4.0 0.0 0.00 0.00 0.00 56 1010.9
20260504024833 59 224 4.0 0.0 0.00 0.00 0.00 56 1010.5
20260504023527 60 270 4.0 0.0 0.00 0.00 0.00 56 1010.5
20260504023335 60 219 3.0 0.0 0.00 0.00 0.00 56 1010.5
20260504022034 60 201 4.0 0.0 0.00 0.00 0.00 54 1010.5
20260504021857 60 199 5.0 0.0 0.00 0.00 0.00 54 1010.5
20260504020533 61 205 5.0 0.0 0.00 0.00 0.00 52 1010.5
20260504020337 61 225 4.0 0.0 0.00 0.00 0.00 51 1010.5
20260504015052 62 244 5.0 0.0 0.00 0.00 0.00 51 1010.5
20260504014839 62 231 5.0 0.0 0.00 0.00 0.00 52 1010.5
20260504013553 62 193 4.0 0.0 0.00 0.00 0.00 49 1010.5
20260504013336 62 184 4.0 0.0 0.00 0.00 0.00 49 1010.5
20260504012033 62 219 5.0 0.0 0.00 0.00 0.00 46 1010.5
20260504011837 62 220 5.0 0.0 0.00 0.00 0.00 46 1010.5
20260504010535 62 223 5.0 0.0 0.00 0.00 0.00 44 1010.5
20260504010326 62 217 5.0 0.0 0.00 0.00 0.00 44 1010.5
20260504005041 63 218 4.0 0.0 0.00 0.00 0.00 43 1010.5
20260504004823 63 225 4.0 0.0 0.00 0.00 0.00 43 1010.4